Weather History for KMCB - March, 2012

Change the Weather History Date:

Monday, March 19, 2012

  Actual Average Record
Temperature  
Mean Temperature 72 °F -  
Max Temperature 78 °F - - ()
Min Temperature 66 °F - - ()
Cooling Degree Days 6    
Growing Degree Days 22 (Base 50)    
Moisture  
Dew Point 64 °F    
Average Humidity 82    
Maximum Humidity 97    
Minimum Humidity 54    
Precipitation  
Precipitation 0.00 in - - ()
Sea Level Pressure  
Sea Level Pressure 30.04 in    
Wind  
Wind Speed 10 mph (SSE)    
Max Wind Speed 20 mph    
Max Gust Speed 26 mph    
Visibility 10 miles    
Events      
T = Trace of Precipitation, MM = Missing Value Source: NWS Daily Summary

Daily Weather History Graph

Daily Weather History Graph

Search for Another Location

Airport or City:

Trip Planner

Search our weather history database for the weather conditions in past years. The results will help you decide how hot, cold, wet, or windy it might be!

Date:

Astronomy

Mar. 19, 2012 Rise Set
Actual Time 7:06 AM CDT 7:13 PM CDT
Civil Twilight 6:42 AM CDT 7:37 PM CDT
Nautical Twilight 6:13 AM CDT 8:05 PM CDT
Astronomical Twilight 5:45 AM CDT 8:33 PM CDT
Moon 5:09 AM CDT (3/19) 4:49 PM CDT (3/19)
Length of Visible Light 12h 55m
Length of Day
12h 06m
Waning Crescent, 8% of the Moon is Illuminated
Mar 19
Waning Crescent
Mar 22
New
Mar 30
First Quarter
Apr 6
Full
Apr 13
Last Quarter

Hourly Weather History & Observations

Time (CDT) Temp. Dew Point Humidity Pressure Visibility Wind Dir Wind Speed Gust Speed Precip Events Conditions
12:18 AM 66.2 °F 64.4 °F 94% 30.12 in 10.0 mi SSE 8.1 mph - N/A   Overcast
12:53 AM 66.9 °F 66.0 °F 97% 30.10 in 10.0 mi SSE 9.2 mph - N/A   Overcast
1:53 AM 66.9 °F 66.0 °F 97% 30.09 in 10.0 mi SSE 9.2 mph - N/A   Overcast
2:53 AM 66.9 °F 66.0 °F 97% 30.07 in 10.0 mi SSE 8.1 mph - N/A   Overcast
3:53 AM 66.9 °F 66.0 °F 97% 30.05 in 10.0 mi SSE 9.2 mph - N/A   Overcast
4:53 AM 66.9 °F 66.0 °F 97% 30.05 in 10.0 mi SSE 12.7 mph - N/A   Overcast
5:53 AM 66.9 °F 66.0 °F 97% 30.06 in 9.0 mi SSE 5.8 mph - N/A   Overcast
6:53 AM 66.0 °F 64.9 °F 96% 30.07 in 8.0 mi SE 5.8 mph - N/A   Overcast
7:51 AM 66.2 °F 64.4 °F 94% 30.09 in 6.0 mi SSE 5.8 mph - N/A   Overcast
7:53 AM 66.0 °F 64.9 °F 96% 30.08 in 5.0 mi SSE 5.8 mph - N/A   Overcast
8:53 AM 68.0 °F 64.9 °F 90% 30.08 in 10.0 mi SSE 12.7 mph - N/A   Overcast
9:53 AM 69.1 °F 64.9 °F 87% 30.08 in 10.0 mi SSE 10.4 mph - N/A   Overcast
10:09 AM 69.8 °F 64.4 °F 83% 30.09 in 10.0 mi SSE 13.8 mph 19.6 mph N/A   Mostly Cloudy
10:53 AM 72.0 °F 64.0 °F 76% 30.08 in 10.0 mi SSE 10.4 mph 18.4 mph N/A   Mostly Cloudy
11:29 AM 73.4 °F 62.6 °F 69% 30.08 in 10.0 mi SSE 13.8 mph 19.6 mph N/A   Scattered Clouds
11:53 AM 73.0 °F 63.0 °F 71% 30.07 in 10.0 mi SSE 16.1 mph 23.0 mph N/A   Scattered Clouds
12:53 PM 75.9 °F 62.1 °F 62% 30.04 in 10.0 mi SE 12.7 mph 19.6 mph N/A   Scattered Clouds
1:53 PM 75.9 °F 57.9 °F 54% 30.04 in 10.0 mi South 19.6 mph 25.3 mph N/A   Scattered Clouds
2:53 PM 77.0 °F 59.0 °F 54% 30.01 in 10.0 mi South 18.4 mph 26.5 mph N/A   Clear
3:53 PM 75.0 °F 59.0 °F 57% 30.00 in 10.0 mi SSE 16.1 mph 26.5 mph N/A   Partly Cloudy
4:53 PM 75.0 °F 60.1 °F 60% 30.00 in 10.0 mi South 15.0 mph - N/A   Scattered Clouds
5:53 PM 75.0 °F 62.1 °F 64% 29.99 in 10.0 mi SSE 15.0 mph 21.9 mph N/A   Mostly Cloudy
7:53 PM 71.1 °F 63.0 °F 75% 29.96 in 10.0 mi SE 8.1 mph - N/A   Clear
8:53 PM 70.0 °F 64.0 °F 81% 29.97 in 10.0 mi SSE 9.2 mph 21.9 mph N/A   Clear
9:48 PM 69.8 °F 64.4 °F 83% 29.97 in 10.0 mi SSE 15.0 mph 23.0 mph N/A   Mostly Cloudy
9:53 PM 69.1 °F 64.9 °F 87% 29.96 in 10.0 mi SSE 10.4 mph 23.0 mph N/A   Mostly Cloudy
10:09 PM 69.8 °F 64.4 °F 83% 29.97 in 10.0 mi SSE 11.5 mph - N/A   Overcast
10:53 PM 69.1 °F 64.9 °F 87% 29.95 in 10.0 mi SSE 13.8 mph 20.7 mph N/A   Overcast
11:53 PM 69.1 °F 64.9 °F 87% 29.93 in 10.0 mi SSE 15.0 mph 23.0 mph N/A   Overcast